GW2419 Weather Reports


time (UTC)temp
C
wind
direction
speed
KPH
gust
KPH
rain 1hr
cm
rain 24hr
cm
rain mn
cm
humidity
%
barometer
mb
20260503014020 16 190 0.0 16.1 0.00 0.00 0.00 35 1010.9
20260503013520 17 0 1.6 16.1 0.00 0.00 0.00 36 1011.0
20260503013035 17 255 4.8 16.1 0.00 0.00 0.00 35 1011.0
20260503012522 17 255 4.8 16.1 0.00 0.00 0.00 35 1010.9
20260503012022 17 283 6.4 16.1 0.00 0.00 0.00 34 1010.9
20260503011541 17 244 4.8 14.5 0.00 0.00 0.00 34 1010.9
20260503011020 17 254 4.8 11.3 0.00 0.00 0.00 34 1011.0
20260503010521 17 0 0.0 8.0 0.00 0.00 0.00 35 1010.8
20260503010041 17 0 1.6 8.0 0.00 0.00 0.00 35 1010.9
20260503005520 17 250 0.0 8.0 0.00 0.00 0.00 35 1010.7
20260503005022 17 0 0.0 6.4 0.00 0.00 0.00 36 1010.7
20260503004538 17 0 0.0 8.0 0.00 0.00 0.00 37 1010.8
20260503004022 17 0 1.6 8.0 0.00 0.00 0.00 36 1010.9
20260503003521 17 254 1.6 8.0 0.00 0.00 0.00 37 1010.8
20260503003048 17 0 0.0 8.0 0.00 0.00 0.00 37 1011.0
20260503002520 17 181 0.0 6.4 0.00 0.00 0.00 37 1010.9
20260503002023 17 166 0.0 4.8 0.00 0.00 0.00 36 1010.9
20260503001603 17 264 0.0 4.8 0.00 0.00 0.00 37 1011.0
20260503001019 17 262 0.0 8.0 0.00 0.00 0.00 37 1011.1
20260503000525 17 266 1.6 11.3 0.00 0.00 0.00 36 1011.2
20260503000047 17 235 0.0 11.3 0.00 0.00 0.00 35 1011.3
20260502235521 17 0 1.6 14.5 0.00 0.00 0.00 35 1011.2
20260502235022 17 234 3.2 14.5 0.00 0.00 0.00 35 1011.3
20260502234542 17 232 1.6 14.5 0.00 0.00 0.00 36 1011.3
20260502234021 17 182 3.2 14.5 0.00 0.00 0.00 34 1011.4
20260502233519 17 186 4.8 14.5 0.00 0.00 0.00 33 1011.3
20260502233035 17 123 0.0 4.8 0.00 0.00 0.00 34 1011.3
20260502232522 17 0 0.0 6.4 0.00 0.00 0.00 34 1011.2
20260502232021 17 181 1.6 6.4 0.00 0.00 0.00 33 1011.2
20260502231535 17 0 0.0 3.2 0.00 0.00 0.00 33 1011.4
20260502231022 17 0 0.0 4.8 0.00 0.00 0.00 33 1011.4
20260502230522 17 183 0.0 4.8 0.00 0.00 0.00 34 1011.4
20260502230038 17 0 0.0 3.2 0.00 0.00 0.00 36 1011.5
20260502225521 17 0 0.0 3.2 0.00 0.00 0.00 36 1011.6
20260502225023 17 0 0.0 1.6 0.00 0.00 0.00 35 1011.6
20260502224542 17 0 0.0 3.2 0.00 0.00 0.00 33 1011.7
20260502224023 17 184 0.0 8.0 0.00 0.00 0.00 32 1011.7
20260502223525 17 0 1.6 8.0 0.00 0.00 0.00 31 1011.7
20260502223039 17 259 0.0 4.8 0.00 0.00 0.00 31 1011.8
20260502222523 17 242 0.0 4.8 0.00 0.00 0.00 32 1011.9
20260502222022 17 292 0.0 6.4 0.00 0.00 0.00 31 1011.9
20260502221541 17 282 1.6 8.0 0.00 0.00 0.00 31 1011.9
20260502221022 17 203 1.6 8.0 0.00 0.00 0.00 30 1012.0
20260502220521 18 195 1.6 8.0 0.00 0.00 0.00 31 1012.0
20260502220037 18 263 1.6 11.3 0.00 0.00 0.00 32 1012.0
20260502215522 18 0 0.0 11.3 0.00 0.00 0.00 32 1012.1
20260502215021 18 0 3.2 9.7 0.00 0.00 0.00 31 1012.1
20260502214545 18 0 3.2 9.7 0.00 0.00 0.00 31 1012.2
20260502214020 18 167 3.2 6.4 0.00 0.00 0.00 31 1012.2
20260502213520 18 255 3.2 8.0 0.00 0.00 0.00 31 1012.2
20260502213043 18 179 1.6 11.3 0.00 0.00 0.00 31 1012.4
20260502212520 18 0 1.6 11.3 0.00 0.00 0.00 30 1012.4
20260502212021 18 269 3.2 17.7 0.00 0.00 0.00 30 1012.5
20260502211539 18 273 3.2 17.7 0.00 0.00 0.00 31 1012.6
20260502211021 18 265 1.6 11.3 0.00 0.00 0.00 30 1012.7
20260502210521 18 148 1.6 11.3 0.00 0.00 0.00 31 1012.7
20260502210043 18 250 3.2 11.3 0.00 0.00 0.00 32 1012.9
20260502205521 18 280 3.2 14.5 0.00 0.00 0.00 30 1013.0
20260502205022 18 176 4.8 14.5 0.00 0.00 0.00 31 1013.2
20260502204536 17 171 1.6 11.3 0.00 0.00 0.00 33 1013.3
20260502204021 17 263 1.6 11.3 0.00 0.00 0.00 33 1013.4
20260502203521 17 259 1.6 12.9 0.00 0.00 0.00 32 1013.5
20260502203038 17 160 1.6 12.9 0.00 0.00 0.00 31 1013.6
20260502202520 17 125 3.2 9.7 0.00 0.00 0.00 32 1013.7
20260502202021 17 158 3.2 9.7 0.00 0.00 0.00 31 1013.7
20260502201541 17 251 3.2 14.5 0.00 0.00 0.00 32 1013.9
20260502201021 17 220 4.8 14.5 0.00 0.00 0.00 31 1013.9
20260502200521 17 154 1.6 12.9 0.00 0.00 0.00 31 1014.2
20260502200041 17 252 1.6 12.9 0.00 0.00 0.00 32 1014.1
20260502195522 17 195 1.6 8.0 0.00 0.00 0.00 32 1014.2
20260502195020 16 248 1.6 11.3 0.00 0.00 0.00 31 1014.2
20260502194538 16 126 4.8 12.9 0.00 0.00 0.00 32 1014.4
20260502194024 16 0 4.8 12.9 0.00 0.00 0.00 33 1014.5
20260502193522 16 269 3.2 12.9 0.00 0.00 0.00 33 1014.6
20260502193041 15 0 3.2 12.9 0.00 0.00 0.00 33 1014.7
20260502192522 15 0 3.2 12.9 0.00 0.00 0.00 33 1014.9
20260502192023 15 162 1.6 17.7 0.00 0.00 0.00 33 1014.9
20260502191535 15 245 3.2 17.7 0.00 0.00 0.00 32 1015.0
20260502191022 15 252 6.4 17.7 0.00 0.00 0.00 32 1015.0
20260502190520 15 250 4.8 11.3 0.00 0.00 0.00 33 1015.2
20260502190046 15 181 1.6 9.7 0.00 0.00 0.00 33 1015.3
20260502185525 14 253 1.6 12.9 0.00 0.00 0.00 33 1015.4
20260502185058 14 292 3.2 12.9 0.00 0.00 0.00 33 1015.7
20260502121541 3 0 0.0 1.6 0.00 0.00 0.00 65 1019.1
20260502121021 3 0 0.0 1.6 0.00 0.00 0.00 67 1019.0
20260502120745 3 0 0.0 1.6 0.00 0.00 0.00 69 1019.1
20260502120303 2 0 0.0 1.6 0.00 0.00 0.00 70 1019.1
20260502115715 2 0 0.0 0.0 0.00 0.00 0.00 71 1019.1
20260502114026 2 0 0.0 0.0 0.00 0.00 0.00 72 1019.0
20260502113523 2 0 0.0 0.0 0.00 0.00 0.00 70 1019.1
20260502113042 2 0 0.0 0.0 0.00 0.00 0.00 69 1018.9
20260502112522 2 0 0.0 0.0 0.00 0.00 0.00 70 1018.9
20260502112018 2 0 0.0 0.0 0.00 0.00 0.00 70 1018.9
20260502111541 2 0 0.0 0.0 0.00 0.00 0.00 70 1018.9
20260502111019 2 0 0.0 3.2 0.00 0.00 0.00 69 1018.9
20260502110521 2 0 0.0 3.2 0.00 0.00 0.00 69 1019.0
20260502110038 2 99 0.0 3.2 0.00 0.00 0.00 70 1018.8
20260502105523 2 0 0.0 0.0 0.00 0.00 0.00 69 1018.9
20260502105021 2 0 0.0 0.0 0.00 0.00 0.00 68 1018.9
20260502104543 2 0 0.0 0.0 0.00 0.00 0.00 68 1019.1
20260502104020 2 0 0.0 0.0 0.00 0.00 0.00 67 1019.1
20260502103521 2 0 0.0 0.0 0.00 0.00 0.00 67 1019.0
20260502103041 2 0 0.0 0.0 0.00 0.00 0.00 67 1018.9
20260502102523 2 0 0.0 0.0 0.00 0.00 0.00 67 1018.9
20260502102022 2 0 0.0 0.0 0.00 0.00 0.00 66 1018.9
20260502101546 2 0 0.0 0.0 0.00 0.00 0.00 66 1018.9
20260502101019 2 0 0.0 0.0 0.00 0.00 0.00 66 1018.8
20260502100521 2 0 0.0 0.0 0.00 0.00 0.00 66 1018.8
20260502091019 3 0 0.0 0.0 0.00 0.00 0.00 64 1018.7
20260502090527 3 0 0.0 0.0 0.00 0.00 0.00 63 1018.6
20260502071020 3 0 0.0 0.0 0.00 0.00 0.00 64 1018.9
20260502070522 3 0 0.0 0.0 0.00 0.00 0.00 63 1018.9
20260502070046 3 0 0.0 0.0 0.00 0.00 0.00 64 1018.9
20260502065520 3 0 0.0 0.0 0.00 0.00 0.00 64 1019.0
20260502065020 3 0 0.0 0.0 0.00 0.00 0.00 63 1018.9
20260502064537 3 0 0.0 0.0 0.00 0.00 0.00 65 1019.1
20260502064021 3 0 0.0 0.0 0.00 0.00 0.00 64 1019.0
20260502063524 3 0 0.0 0.0 0.00 0.00 0.00 62 1019.1
20260502063042 3 0 0.0 0.0 0.00 0.00 0.00 64 1019.0
20260502062523 3 0 0.0 0.0 0.00 0.00 0.00 64 1019.2
20260502062026 3 0 0.0 0.0 0.00 0.00 0.00 65 1019.0
20260502061540 3 0 0.0 0.0 0.00 0.00 0.00 62 1019.1
20260502061023 3 0 0.0 0.0 0.00 0.00 0.00 61 1019.2
20260502060521 3 0 0.0 0.0 0.00 0.00 0.00 61 1019.2
20260502060041 3 0 0.0 0.0 0.00 0.00 0.00 62 1019.2
20260502055528 3 0 0.0 0.0 0.00 0.00 0.00 61 1019.2
20260502055022 3 0 0.0 0.0 0.00 0.00 0.00 61 1019.2
20260502054541 3 0 0.0 0.0 0.00 0.00 0.00 63 1019.3
20260502054020 3 0 0.0 0.0 0.00 0.00 0.00 62 1019.3
20260502053525 3 0 0.0 0.0 0.00 0.00 0.00 62 1019.3
20260502053058 3 0 0.0 0.0 0.00 0.00 0.00 61 1019.2
20260502052525 3 0 0.0 0.0 0.00 0.00 0.00 62 1019.3
20260502052024 3 0 0.0 0.0 0.00 0.00 0.00 62 1019.3
20260502051540 3 0 0.0 0.0 0.00 0.00 0.00 62 1019.2
20260502051023 3 0 0.0 0.0 0.00 0.00 0.00 62 1019.2
20260502050524 3 0 0.0 0.0 0.00 0.00 0.00 61 1019.1
20260502050036 3 0 0.0 0.0 0.00 0.00 0.00 63 1019.1
20260502045523 3 0 0.0 0.0 0.00 0.00 0.00 62 1019.1
20260502045025 3 0 0.0 0.0 0.00 0.00 0.00 62 1019.0
20260502044542 4 0 0.0 0.0 0.00 0.00 0.00 61 1019.0
20260502044022 4 0 0.0 0.0 0.00 0.00 0.00 62 1019.1
20260502043523 4 0 0.0 0.0 0.00 0.00 0.00 60 1019.1
20260502043043 4 0 0.0 0.0 0.00 0.00 0.00 61 1019.2
20260502042523 4 0 0.0 0.0 0.00 0.00 0.00 61 1019.2
20260502042021 4 0 0.0 0.0 0.00 0.00 0.00 58 1019.2
20260502041542 4 0 0.0 0.0 0.00 0.00 0.00 59 1019.1
20260502041021 4 0 0.0 0.0 0.00 0.00 0.00 60 1019.1
20260502040523 4 0 0.0 0.0 0.00 0.00 0.00 58 1019.2
20260502040044 5 0 0.0 0.0 0.00 0.00 0.00 60 1019.3
20260502035522 5 0 0.0 0.0 0.00 0.00 0.00 58 1019.3
20260502035021 5 0 0.0 0.0 0.00 0.00 0.00 58 1019.2
20260502034537 5 0 0.0 0.0 0.00 0.00 0.00 56 1019.3
20260502034019 5 0 0.0 0.0 0.00 0.00 0.00 57 1019.3
20260502033521 5 0 0.0 0.0 0.00 0.00 0.00 58 1019.2
20260502033034 5 0 0.0 0.0 0.00 0.00 0.00 58 1019.4
20260502032521 5 0 0.0 0.0 0.00 0.00 0.00 58 1019.3
20260502032022 5 0 0.0 0.0 0.00 0.00 0.00 56 1019.4
20260502031538 5 0 0.0 0.0 0.00 0.00 0.00 57 1019.3
20260502031022 5 0 0.0 0.0 0.00 0.00 0.00 56 1019.4
20260502030523 5 0 0.0 0.0 0.00 0.00 0.00 52 1019.3
20260502030053 5 0 0.0 0.0 0.00 0.00 0.00 51 1019.3
20260502025522 6 0 0.0 0.0 0.00 0.00 0.00 51 1019.2
20260502025021 6 0 0.0 0.0 0.00 0.00 0.00 52 1019.1
20260502024543 6 0 0.0 0.0 0.00 0.00 0.00 50 1019.2
20260502024022 6 0 0.0 0.0 0.00 0.00 0.00 50 1019.2
20260502023523 6 0 0.0 0.0 0.00 0.00 0.00 51 1019.2
20260502023052 6 0 0.0 0.0 0.00 0.00 0.00 46 1019.2
20260502022521 6 0 0.0 0.0 0.00 0.00 0.00 48 1019.2
20260502022051 7 0 0.0 0.0 0.00 0.00 0.00 49 1019.1
20260502021541 7 0 0.0 0.0 0.00 0.00 0.00 47 1019.1
20260502021023 7 0 0.0 0.0 0.00 0.00 0.00 46 1019.1
20260502020518 7 0 0.0 0.0 0.00 0.00 0.00 44 1018.9
20260502020045 7 0 0.0 0.0 0.00 0.00 0.00 45 1019.0
20260502015521 7 0 0.0 0.0 0.00 0.00 0.00 46 1018.8
20260502015023 8 0 0.0 0.0 0.00 0.00 0.00 44 1018.8
20260502014541 8 0 0.0 0.0 0.00 0.00 0.00 42 1018.7